CZ-2D DEB, 43490

Orbit data source: Space-Track

CZ-2D DEB, 43490 is space debris in SSO originally from a launch on Sat, 02 Jun 2018 UTC launched from the Jiuquan Satellite Launch Center, China (JSC). Debris objects in space refer to the collection of defunct objects orbiting the Earth. Examples of debris include non-operational satellites, rocket bodies, and fragments generated from explosions, collisions, or faulty payload assembly.

Loading next visibility...
Identifier
43490, 2018-048E
Orbit
SSO
Country
Flag of CNCN / PRC
Related business
Manufacturer
CALT
Mission
Spacecraft
Bus & Motor
Unknown
Mass
1 kg wet, 1 kg dry
Launch date (UTC)
2018-06-02 (7 years ago)
Launch vehicle
Unknown
Launch site
Jiuquan Satellite Launch Center, China (JSC)
Object type
Payload
Rocket body
Debris
Shape & HBR
Cone, 0.1 m
Radar Cross Section
0.025 m², Small (<0.1 m²)

Expand to show TLE details & history
Last TLE update: 7 hours ago

TLE from 7 hours ago
0 CZ-2D DEB
1 43490U 18048E   25307.70197271  .00007806  00000-0  74666-3 0  9995
2 43490  98.2498  98.4299 0024897 167.5619 192.6219 14.93286170400496
Epoch: 2025-11-03T16:50Z
TLE epoch observation values (Epoch: 2025-11-03T16:50:50.442Z)
Latitude
Longitude
162.52016°
Altitude
607.656 km
Speed
7.546 km/s
True Right ascension
06h 33m 43s
True Declination
0° 00' 00"
Sunlit
Object was in full shadow at epoch
Visualization orbit readout
Latitude
Unknown
Longitude
Unknown
Altitude
Unknown
Speed
Unknown
Apparent Right ascension
Unknown
Apparent Declination
Unknown
Sunlit
N/A
Visualization observer readout
Local Sidereal Time
20:00:38
Azimuth
Unknown
Elevation
Unknown
Doppler factor
Unknown
Orbital elements
Apogee altitude
602.072 km
Perigee altitude
567.401 km
Semi-major axis
6,962.874 km
Eccentricity
0.00249
Inclination
98.2498°
RAAN
98.4299°
Arg. of periapsis
167.5619°
True anomaly
192.55975°
Mean anomaly
192.6219°
Eccentric anomaly
192.5908°
Mean motion
3.7356 °/min
Orbital period
96.37 mins
BSTAR
0.00074666
Loading maneuver chart data...
Computing Atmospheric mass density...
Loading historical data...
Loading historical data...
Loading historical data...
Loading historical data...
Loading historical data...
Loading historical data...
Loading historical data...
Other satellites on launch #48 in the year 2018 (2018-06-02 UTC)

Documentation

Showing up to 5 results
|